Location: Monroe
(41.3286°N, 74.1872°W)
Time: 03:09:08
(UTC+00:00)

ARIANE 6 FM1 Upper Stage - Pass Details

Date: 22 January 2026
Orbit: 522 x 609 km, 62.0° (Epoch: 10 February)

Event Time Altitude Azimuth Distance (km) Brightness Sun altitude
Rises 23:55:51 0° 217° (SW) 2,717 6.8 -21.6°
Reaches altitude 10° 23:58:04 10° 217° (SW) 1,812 5.8 -22.1°
Maximum altitude 00:02:09 86° 306° (NW) 544 2.5 -22.8°
Enters shadow 00:02:12 85° 331° (NNW) 545 2.5 -22.8°
